[[{"header":{"parameterUnit":"m.s-1","parameterCategory":1,"la1":30.2991,"la2":30.254,"lo1":-89.0895,"lo2":-89.0444,"dy":0.0017,"dx":0.0017,"nx":28,"ny":28,"refTime":"2023-11-13T03:00:00:Z","depth":0,"parameterNumber":2,"parameterNumberName":"U-component_of_WINDS"},"data":[0,0,0,0,0,0,0,0,0,0,0,0,0,0,0,0,0,0,0,0,0,0,0,0,0,0,0,0,0,0,0,0,0,0,0,0,0,0,0,0,0,0,0,0,0,0,0,0,0,0,0,0,0,0,0,0,0,0,-3.5392,-3.5394,0,-3.5556,-3.5558,-3.556,-3.553,-3.5527,-3.5524,-3.5521,-3.5689,-3.5696,-3.5703,0,0,0,0,0,0,0,0,0,0,0,0,0,-3.5054,-3.506,-3.5392,-3.5394,-3.5396,-3.5555,-3.5558,-3.556,-3.553,-3.5527,-3.5523,-3.552,-3.5687,-3.5695,-3.5704,0,0,0,0,0,0,0,0,0,0,0,0,0,-3.5207,-3.5062,-3.5392,-3.54,-3.5403,-3.5555,-3.5558,-3.5561,-3.5531,-3.5527,-3.5522,-3.5518,-3.5684,-3.5695,-3.5705,-3.5859,0,0,-3.5738,-3.5743,0,0,0,0,0,0,0,0,-3.5199,-3.522,-3.5397,-3.54,-3.5403,-3.5518,-3.55,-3.5661,-3.5532,-3.5482,-3.5521,-3.5516,-3.5636,-3.565,-3.5691,-3.5867,-3.5874,-3.5739,-3.5746,-3.575,-3.5753,0,0,0,0,0,0,0,-3.5188,-3.5213,-3.5457,-3.54,-3.5403,-3.5396,-3.5413,-3.553,-3.5582,-3.5486,-3.5485,-3.5504,-3.5637,-3.568,-3.5694,-3.5877,-3.5739,-3.5748,-3.5755,-3.5759,-3.6189,-3.6193,0,0,0,0,0,0,-3.5175,-3.5204,-3.5451,-3.5462,-3.5288,-3.5406,-3.5425,-3.5485,-3.558,-3.559,-3.5508,-3.5502,-3.5664,-3.5682,-3.57,-3.5888,-3.575,-3.576,-3.5767,-3.6184,-3.619,-3.6195,0,0,0,0,0,0,-3.5167,-3.5197,-3.5445,-3.5332,-3.5363,-3.5416,-3.5485,-3.5491,-3.5535,-3.5597,-3.5605,-3.5543,-3.5661,-3.5685,-3.582,-3.5893,-3.5765,-3.5775,-3.6178,-3.6186,-3.6192,-3.6264,0,0,0,0,0,0,-3.5158,-3.5195,-3.5253,-3.5334,-3.537,-3.5562,-3.5489,-3.5497,-3.5553,-3.5548,-3.5632,-3.5642,-3.566,-3.5804,-3.5831,-3.5906,-3.5783,-3.6172,-3.6181,-3.619,-3.6255,-3.6272,-3.6287,0,0,0,0,0,-3.5146,-3.5267,-3.5257,-3.5287,-3.5444,-3.5566,-3.5587,-3.5605,-3.5559,-3.5619,-3.5659,-3.5639,-3.588,-3.5818,-3.5848,-3.5927,-3.6167,-3.6179,-3.6189,-3.6248,-3.6269,-3.6287,0,0,0,0,0,0,-3.5193,-3.5277,-3.5267,-3.5418,-3.5485,-3.5561,-3.5637,-3.5627,-3.5709,-3.57,-3.5719,-3.5738,-3.5876,-3.5915,-3.5844,-3.6082,-3.6017,-3.6035,-3.6052,-3.6072,-3.6088,-3.6077,-3.5792,0,0,0,0,0,-3.5221,-3.5314,-3.5382,-3.5508,-3.5542,-3.5584,-3.5638,-3.5646,-3.5717,-3.5745,-3.5795,-3.5864,-3.5956,-3.6016,-3.6104,-3.626,-3.6278,-3.6329,-3.6345,-3.6358,-3.6374,-3.6461,-3.6484,-3.6232,-3.6232,-3.6231,0,0,-3.528,-3.5338,-3.5395,-3.5519,-3.5572,-3.5668,-3.5608,-3.5711,-3.5783,-3.5761,-3.5892,-3.5931,-3.601,-3.6156,-3.6223,-3.6193,-3.6447,-3.6372,-3.6382,-3.6391,-3.6474,-3.6498,-3.652,-3.6239,-3.6238,-3.6237,0,0,-3.5437,-3.5489,-3.56,-3.5655,-3.5736,-3.5763,-3.579,-3.5868,-3.5893,-3.6025,-3.6011,-3.6095,-3.6252,-3.631,-3.6359,-3.6538,-3.6523,-3.6565,-3.6651,-3.6736,-3.6755,-3.6773,-3.6838,-3.6861,-3.658,-3.6581,-3.6581,0,-3.55,-3.5643,-3.5659,-3.5764,-3.582,-3.5804,-3.5918,-3.597,-3.6076,-3.6115,-3.6079,-3.6276,-3.6328,-3.6489,-3.6532,-3.6572,-3.6604,-3.6557,-3.6751,-3.6769,-3.6786,-3.6848,-3.6873,-3.6585,-3.6585,-3.6584,-3.6584,0,-3.5717,-3.5817,-3.5897,-3.6,-3.6065,-3.6173,-3.6206,-3.6269,-3.6272,-3.6302,-3.6437,-3.6499,-3.6599,-3.6637,-3.664,-3.6799,-3.6778,-3.6746,-3.6683,-3.6815,-3.6874,-3.6898,-3.6592,-3.659,-3.6589,-3.6588,0,0,-3.5909,-3.602,-3.6049,-3.6096,-3.6185,-3.6263,-3.637,-3.6469,-3.6523,-3.6596,-3.6688,-3.6822,-3.6794,-3.685,-3.6859,-3.6933,-3.7072,-3.6893,-3.6895,-3.6926,-3.7252,-3.7277,-3.7304,-3.7062,-3.7067,-3.7071,-3.7246,0,-3.6075,-3.6267,-3.6284,-3.6456,-3.6549,-3.6535,-3.6629,-3.6694,-3.6726,-3.6809,-3.6844,-3.6939,-3.6893,-3.6928,-3.7,-3.704,-3.7138,-3.7027,-3.7149,-3.7153,-3.7132,-3.7335,-3.7361,-3.7524,-3.7269,-3.7273,-3.7276,0,-3.6295,-3.6375,-3.6557,-3.6633,-3.6673,-3.6757,-3.6849,-3.6929,-3.7002,-3.702,-3.7083,-3.7082,-3.7194,-3.7125,-3.728,-3.7204,-3.7254,-3.7282,-3.7288,-3.7302,-3.7224,-3.7355,-3.7576,-3.7601,-3.7312,-3.7309,-3.7307,0,-3.6419,-3.6572,-3.6701,-3.6741,-3.6833,-3.6893,-3.6934,-3.7003,-3.7062,-3.7142,-3.718,-3.7272,-3.7322,-3.7394,-3.7418,-3.7365,-3.7573,-3.7505,-3.7592,-3.7592,-3.7638,-3.7635,-3.7871,-3.7667,-3.7667,-3.7667,-3.7666,0,-3.6604,-3.6716,-3.6758,-3.6837,-3.6962,-3.6981,-3.7105,-3.7142,-3.7204,-3.7291,-3.7284,-3.7365,-3.7392,-3.7478,-3.7498,-3.7624,-3.7647,-3.7665,-3.7669,-3.7667,-3.7665,-3.7701,-3.7691,-3.7673,-3.7672,-3.767,-3.7669,0,-3.6764,-3.6797,-3.6937,-3.7012,-3.7034,-3.7123,-3.7188,-3.7265,-3.7294,-3.7404,-3.7431,-3.7478,-3.758,-3.7611,-3.7732,-3.7746,-3.7894,-3.7887,-3.787,-3.7871,-3.7956,-3.7948,-3.8226,-3.8264,-3.8033,-3.8036,-3.8037,0,-3.6881,-3.6967,-3.7052,-3.7109,-3.7153,-3.7246,-3.7305,-3.7327,-3.7389,-3.7479,-3.7546,-3.7646,-3.7727,-3.7889,-3.7935,-3.8028,-3.8025,-3.8116,-3.8039,-3.8034,-3.8028,-3.8024,-3.8033,-3.8131,-3.8133,-3.8135,-3.8137,0,-3.7085,-3.7097,-3.7183,-3.7275,-3.7346,-3.742,-3.7491,-3.7538,-3.757,-3.7641,-3.7744,-3.7807,-3.7932,-3.8032,-3.8127,-3.8169,-3.816,-3.816,-3.8186,-3.8185,-3.8172,-3.8182,-3.7911,-3.8154,-3.8152,-3.8151,-3.815,-3.8149,-3.7228,-3.7304,-3.7377,-3.7473,-3.7528,-3.7595,-3.7671,-3.771,-3.7797,-3.7901,-3.7908,-3.802,-3.8092,-3.8218,-3.8266,-3.8354,-3.8328,-3.8364,-3.8374,-3.8383,-3.8391,-3.8156,-3.8371,-3.8371,-3.837,-3.837,-3.837,0,-3.7433,-3.7479,-3.7567,-3.7667,-3.7743,-3.7726,-3.7803,-3.7868,-3.7967,-3.8035,-3.8115,-3.8235,-3.8332,-3.8384,-3.8481,-3.8542,-3.854,-3.8567,-3.8564,-3.8574,-3.8408,-3.8377,-3.8567,-3.8567,-3.8567,-3.8567,-3.8567,-3.8567,-3.7549,-3.7678,-3.7698,-3.7854,-3.7899,-3.8009,-3.8055,-3.8117,-3.8171,-3.8305,-3.8385,-3.8419,-3.8481,-3.8582,-3.8671,-3.8684,-3.8721,-3.8751,-3.8762,-3.8606,-3.8585,-3.8566,-3.8537,-3.8758,-3.8759,-3.8921,-3.8922,-3.8923]},{"header":{"parameterUnit":"m.s-1","parameterCategory":1,"la1":30.2991,"la2":30.254,"lo1":-89.0895,"lo2":-89.0444,"dy":0.0017,"dx":0.0017,"nx":28,"ny":28,"refTime":"2023-11-13T03:00:00:Z","depth":0,"parameterNumber":3,"parameterNumberName":"V-component_of_WINDS"},"data":[0,0,0,0,0,0,0,0,0,0,0,0,0,0,0,0,0,0,0,0,0,0,0,0,0,0,0,0,0,0,0,0,0,0,0,0,0,0,0,0,0,0,0,0,0,0,0,0,0,0,0,0,0,0,0,0,0,0,-4.9782,-4.9782,0,-4.9801,-4.9801,-4.9801,-4.9712,-4.9709,-4.9707,-4.9704,-4.9721,-4.9724,-4.9727,0,0,0,0,0,0,0,0,0,0,0,0,0,-4.9667,-4.967,-4.9782,-4.9782,-4.9783,-4.9801,-4.9801,-4.9801,-4.9712,-4.9709,-4.9706,-4.9703,-4.972,-4.9723,-4.9727,0,0,0,0,0,0,0,0,0,0,0,0,0,-4.9705,-4.9671,-4.9782,-4.9741,-4.9737,-4.98,-4.9801,-4.9801,-4.9713,-4.9709,-4.9705,-4.9702,-4.9719,-4.9723,-4.9727,-4.9831,0,0,-4.974,-4.9742,0,0,0,0,0,0,0,0,-4.9703,-4.9709,-4.9746,-4.9743,-4.974,-4.975,-4.9766,-4.9811,-4.9714,-4.9722,-4.9704,-4.97,-4.9734,-4.9736,-4.9748,-4.9832,-4.9833,-4.9741,-4.9743,-4.9745,-4.9746,0,0,0,0,0,0,0,-4.97,-4.9708,-4.9789,-4.9747,-4.9743,-4.972,-4.9721,-4.9774,-4.9749,-4.9721,-4.9715,-4.9718,-4.9731,-4.9744,-4.9748,-4.9833,-4.9741,-4.9744,-4.9747,-4.9749,-5.0001,-5.0005,0,0,0,0,0,0,-4.9703,-4.9706,-4.9789,-4.979,-4.9711,-4.9725,-4.9726,-4.9751,-4.9748,-4.9744,-4.9721,-4.9714,-4.9739,-4.9743,-4.9748,-4.9869,-4.9745,-4.9749,-4.9752,-4.9997,-5.0002,-5.0007,0,0,0,0,0,0,-4.9701,-4.9712,-4.9788,-4.9746,-4.9754,-4.9731,-4.9759,-4.9753,-4.9766,-4.9749,-4.9743,-4.974,-4.9736,-4.9742,-4.9811,-4.9868,-4.9751,-4.9755,-4.9992,-4.9999,-5.0005,-5.0112,0,0,0,0,0,0,-4.9698,-4.9712,-4.9751,-4.9748,-4.9757,-4.9852,-4.9763,-4.9756,-4.9774,-4.9764,-4.9765,-4.9761,-4.9734,-4.9805,-4.9815,-4.9872,-4.9758,-4.9987,-4.9995,-5.0003,-5.0103,-5.0121,-5.0136,0,0,0,0,0,-4.9695,-4.9781,-4.9754,-4.9764,-4.9806,-4.9855,-4.986,-4.9827,-4.9779,-4.9818,-4.9807,-4.9761,-4.9861,-4.9813,-4.9824,-4.9883,-4.9983,-4.9993,-5.0002,-5.0096,-5.0117,-5.0136,0,0,0,0,0,0,-4.9791,-4.9779,-4.975,-4.9837,-4.9848,-4.984,-4.9889,-4.9852,-4.9876,-4.9866,-4.9823,-4.9824,-4.99,-4.9898,-4.9845,-4.9982,-4.9913,-4.9925,-4.9981,-5.0002,-5.0018,-5.0017,-4.9762,0,0,0,0,0,-4.9822,-4.9864,-4.9851,-4.9929,-4.9936,-4.9912,-4.9932,-4.9906,-4.9915,-4.9919,-4.9912,-4.9922,-4.9956,-4.9978,-5.0008,-5.0102,-5.0101,-5.0148,-5.0165,-5.0179,-5.0189,-5.0238,-5.0259,-5.0037,-5.0037,-5.0037,0,0,-4.9887,-4.9886,-4.9915,-4.9949,-4.9954,-4.9997,-4.9916,-4.9965,-4.9996,-4.9926,-4.999,-4.9986,-4.9994,-5.0076,-5.0112,-5.0077,-5.025,-5.019,-5.0202,-5.0205,-5.025,-5.0271,-5.0289,-5.0044,-5.0043,-5.0042,0,0,-5.0028,-5.0032,-5.0097,-5.0104,-5.0113,-5.0096,-5.0112,-5.011,-5.0105,-5.0169,-5.0117,-5.0153,-5.0212,-5.0219,-5.0231,-5.0375,-5.0333,-5.0386,-5.0472,-5.052,-5.0538,-5.0553,-5.0604,-5.0622,-5.0396,-5.0397,-5.0397,0,-5.0107,-5.0171,-5.0135,-5.0188,-5.0204,-5.0143,-5.0208,-5.0216,-5.0234,-5.0247,-5.0207,-5.0279,-5.0281,-5.0363,-5.0398,-5.041,-5.0426,-5.0385,-5.0538,-5.0553,-5.0567,-5.0615,-5.0634,-5.0403,-5.0402,-5.0401,-5.0401,0,-5.0268,-5.0313,-5.0364,-5.0384,-5.0406,-5.0465,-5.0437,-5.0463,-5.0435,-5.0422,-5.0488,-5.0488,-5.0516,-5.0534,-5.0507,-5.0612,-5.059,-5.0546,-5.0475,-5.0595,-5.0639,-5.0657,-5.0412,-5.041,-5.0408,-5.0406,0,0,-5.0469,-5.0469,-5.0488,-5.0496,-5.0502,-5.0535,-5.0591,-5.0619,-5.0642,-5.0657,-5.0702,-5.0753,-5.0711,-5.0724,-5.0698,-5.074,-5.0853,-5.069,-5.0689,-5.072,-5.0969,-5.1002,-5.1024,-5.0826,-5.0829,-5.0832,-5.0968,0,-5.0607,-5.0702,-5.0671,-5.0768,-5.0808,-5.0751,-5.0799,-5.0807,-5.0797,-5.0828,-5.0816,-5.0853,-5.0796,-5.0803,-5.0843,-5.0831,-5.0903,-5.0821,-5.0866,-5.0868,-5.0866,-5.1047,-5.1083,-5.1211,-5.0985,-5.0988,-5.099,0,-5.0779,-5.0802,-5.0902,-5.0901,-5.0916,-5.096,-5.0983,-5.1015,-5.1023,-5.1012,-5.1027,-5.0992,-5.1045,-5.0975,-5.1048,-5.0993,-5.101,-5.1007,-5.1011,-5.1014,-5.0936,-5.1054,-5.1252,-5.1271,-5.1017,-5.1015,-5.1013,0,-5.0916,-5.097,-5.1038,-5.1046,-5.1046,-5.1078,-5.108,-5.1084,-5.1102,-5.1123,-5.1134,-5.116,-5.1174,-5.1195,-5.1167,-5.1119,-5.1244,-5.1172,-5.1235,-5.1236,-5.1264,-5.1262,-5.1466,-5.1276,-5.1276,-5.1275,-5.1275,0,-5.1072,-5.1136,-5.1099,-5.114,-5.1209,-5.1173,-5.1242,-5.1237,-5.1241,-5.128,-5.1231,-5.1269,-5.1229,-5.1263,-5.1241,-5.1304,-5.1311,-5.1303,-5.1297,-5.1307,-5.1308,-5.1317,-5.1308,-5.128,-5.1279,-5.1278,-5.1277,0,-5.1236,-5.1214,-5.1283,-5.1277,-5.1277,-5.1328,-5.1323,-5.136,-5.1346,-5.1396,-5.1405,-5.1383,-5.142,-5.1394,-5.143,-5.1416,-5.1499,-5.148,-5.1496,-5.1491,-5.1556,-5.155,-5.1773,-5.18,-5.1592,-5.1594,-5.1596,0,-5.1337,-5.1384,-5.1384,-5.1406,-5.1411,-5.1448,-5.1467,-5.1433,-5.1455,-5.1467,-5.1503,-5.1536,-5.156,-5.1621,-5.1608,-5.1635,-5.1616,-5.1692,-5.162,-5.1629,-5.1617,-5.1614,-5.1618,-5.1707,-5.1709,-5.1711,-5.1713,0,-5.1518,-5.1504,-5.1534,-5.1561,-5.1585,-5.1604,-5.1618,-5.1639,-5.1605,-5.1632,-5.1669,-5.1688,-5.1725,-5.1758,-5.178,-5.178,-5.1741,-5.1736,-5.1752,-5.1763,-5.1771,-5.1767,-5.1536,-5.1731,-5.1729,-5.1728,-5.1727,-5.1726,-5.1653,-5.1692,-5.1698,-5.1733,-5.174,-5.1755,-5.179,-5.178,-5.1811,-5.1839,-5.1817,-5.1861,-5.1867,-5.1893,-5.1898,-5.1932,-5.1901,-5.1924,-5.193,-5.1936,-5.1945,-5.1766,-5.1936,-5.1935,-5.1935,-5.1934,-5.1934,0,-5.1831,-5.1832,-5.1864,-5.1886,-5.1914,-5.1875,-5.1889,-5.1914,-5.1954,-5.1963,-5.1988,-5.203,-5.2062,-5.2051,-5.2079,-5.2108,-5.209,-5.2116,-5.2113,-5.2114,-5.1972,-5.1955,-5.213,-5.213,-5.2129,-5.2129,-5.2129,-5.2129,-5.1927,-5.1992,-5.1979,-5.2047,-5.2046,-5.209,-5.2101,-5.2115,-5.2121,-5.2171,-5.2197,-5.219,-5.2191,-5.2219,-5.2246,-5.2241,-5.2254,-5.2286,-5.2276,-5.2143,-5.2124,-5.2105,-5.2089,-5.2289,-5.229,-5.2415,-5.2416,-5.2417]}]]